Date,TemperatureHighF,TemperatureAvgF,TemperatureLowF,DewpointHighF,DewpointAvgF,DewpointLowF,HumidityHigh,HumidityAvg,HumidityLow,PressureMaxIn,PressureMinIn,WindSpeedMaxMPH,WindSpeedAvgMPH,GustSpeedMaxMPH,PrecipitationSumIn
2013-1-10,39.2,37.7,35.1,37.1,35.3,31.9,93,91,88,30.48,30.48,0,0,0,0.00
2013-1-11,41.0,37.1,32.4,37.5,33.6,28.1,92,87,82,30.49,30.44,6,1,6,0.00
2013-1-12,41.9,33.7,28.9,34.6,28.7,24.7,88,82,67,30.60,30.41,8,1,11,0.00
2013-1-13,35.8,33.7,29.5,31.3,29.2,25.5,86,83,81,30.60,30.46,10,3,14,0.02
2013-1-14,41.9,34.4,28.2,36.5,29.9,22.3,88,83,72,30.46,30.22,11,2,12,0.01
2013-1-15,44.2,31.5,23.2,36.5,26.5,18.0,88,82,71,30.39,30.30,4,0,5,0.00
2013-1-16,34.0,29.1,22.6,28.3,23.3,18.0,86,79,72,30.45,30.29,0,0,0,0.00
2013-1-17,35.1,32.2,30.2,26.7,24.7,22.3,79,74,63,30.46,30.27,10,2,14,0.00
2013-1-18,35.1,32.1,29.5,25.4,22.1,18.1,78,66,55,30.27,30.04,19,7,24,0.00
2013-1-19,39.6,31.9,24.1,29.9,25.3,17.3,82,76,65,30.21,30.06,9,4,13,0.00
2013-1-20,33.3,32.5,31.5,26.8,24.7,23.0,79,73,67,30.19,30.01,8,4,10,0.00
2013-1-21,34.2,33.2,32.2,29.4,28.0,24.4,86,81,69,30.01,29.95,18,8,18,0.00
2013-1-22,35.2,33.2,30.7,29.7,27.6,24.6,84,80,73,30.32,29.99,17,3,18,0.02
2013-1-23,36.5,32.7,28.2,29.4,27.7,23.2,86,81,73,30.43,30.30,7,1,8,0.00
2013-1-24,37.6,33.7,31.1,31.1,26.9,23.8,85,76,64,30.53,30.43,13,3,16,0.00
2013-1-25,37.2,34.7,32.4,31.1,28.3,24.0,87,78,65,30.42,29.88,15,7,19,0.17
2013-1-26,44.6,38.7,34.5,40.1,33.6,29.0,86,82,70,30.05,29.46,20,9,24,0.08
2013-1-27,46.8,40.7,36.3,42.8,36.1,31.3,88,84,76,29.72,29.28,24,15,24,0.06
2013-1-28,45.7,41.1,37.2,40.4,35.8,31.3,87,81,74,29.82,29.40,25,15,31,0.17
2013-1-29,51.8,45.5,42.8,47.9,39.8,34.9,87,80,70,29.83,29.47,29,13,30,0.11
2013-1-30,44.4,41.4,39.2,37.2,35.7,34.3,88,80,71,30.15,29.63,23,12,29,0.04
2013-1-31,44.6,40.6,36.1,38.3,35.8,31.4,90,83,72,30.16,29.70,18,10,34,0.12
2013-2-1,41.9,40.6,36.9,38.0,36.8,32.5,89,86,84,29.97,29.85,17,6,22,0.05
2013-2-2,41.5,41.5,41.5,37.7,37.7,37.7,86,86,86,29.93,29.93,4,4,6,0.05
2013-2-3,41.5,41.5,41.5,37.7,37.7,37.7,86,86,86,29.93,29.93,4,4,6,0.05
2013-2-4,41.5,41.5,41.5,37.7,37.7,37.7,86,86,86,29.93,29.93,4,4,6,0.05
2013-2-5,41.5,41.5,41.5,37.7,37.7,37.7,86,86,86,29.93,29.93,4,4,6,0.05
2013-2-6,51.8,42.7,41.5,47.9,38.8,37.7,88,86,84,29.93,29.85,19,5,19,0.05
2013-2-7,48.0,37.7,32.2,43.7,31.6,25.8,86,79,72,30.02,29.87,11,3,11,0.98
2013-2-8,43.9,37.4,32.7,37.0,32.4,29.3,89,82,69,30.04,29.93,4,2,8,0.06
2013-2-9,41.0,37.9,36.1,38.3,34.7,32.1,91,88,85,30.00,29.68,4,1,6,0.05
2013-2-10,37.6,36.0,34.0,33.9,31.6,29.9,87,84,78,29.68,29.28,13,5,14,0.04
2013-2-11,43.7,36.2,30.0,32.5,27.8,22.4,81,72,53,29.82,29.36,12,5,14,0.00
2013-2-12,37.6,33.7,31.1,28.7,25.5,23.8,77,72,63,29.96,29.82,8,2,10,0.00
2013-2-13,42.8,35.0,28.4,39.2,29.8,22.4,87,81,71,29.95,29.41,21,8,24,0.33
2013-2-14,48.4,43.5,41.5,40.8,38.3,36.8,87,82,72,29.71,29.43,15,8,18,0.00
2013-2-15,48.2,41.9,35.8,39.4,36.0,31.1,86,80,67,29.99,29.71,14,5,17,0.00
2013-2-16,48.7,42.3,36.1,42.2,37.6,31.2,87,83,78,30.00,29.95,11,4,15,0.00
2013-2-17,52.0,41.4,28.0,39.8,33.2,22.0,84,73,52,29.99,29.93,10,2,11,0.00
2013-2-18,57.9,34.7,25.0,42.1,25.9,20.2,87,72,43,30.00,29.94,5,1,7,0.00
2013-2-19,49.3,36.8,27.1,36.7,28.9,19.3,85,74,52,30.02,29.97,7,2,11,0.00
2013-2-20,41.9,37.7,29.5,37.0,31.2,21.9,89,78,67,30.17,30.02,11,4,13,0.00
2013-2-21,43.3,33.1,26.1,26.5,21.6,18.2,75,63,47,30.18,30.14,9,3,13,0.00
2013-2-22,35.8,33.4,31.3,24.3,20.9,17.7,74,60,54,30.18,30.13,7,2,11,0.00
2013-2-23,47.3,34.7,30.6,30.4,25.3,23.8,77,69,40,30.26,30.12,7,1,11,0.00
2013-2-24,45.0,34.9,31.3,37.5,29.8,24.8,87,81,72,30.36,30.25,4,0,10,0.08
2013-2-25,48.4,37.2,29.8,39.2,30.9,24.0,90,79,58,30.50,30.35,8,2,10,0.00
2013-2-26,49.8,39.2,33.4,38.0,32.9,29.2,91,79,60,30.56,30.48,10,3,11,0.00
2013-2-27,57.4,37.9,25.2,39.9,30.0,21.0,90,74,47,30.56,30.45,4,1,6,0.00
2013-2-28,60.1,40.6,29.7,42.4,33.9,25.7,91,78,49,30.46,30.38,6,1,6,0.00
2013-3-1,58.3,41.4,31.8,41.1,30.9,25.2,86,68,37,30.42,30.30,10,2,11,0.00
2013-3-2,57.2,43.8,29.5,41.6,36.1,24.4,88,75,53,30.30,30.13,8,2,10,0.00
2013-3-3,48.6,43.6,40.3,39.1,36.6,33.2,85,76,66,30.14,29.98,8,2,8,0.00
2013-3-4,52.3,40.7,30.0,34.4,31.4,24.9,81,70,49,29.98,29.63,6,1,8,0.00
2013-3-5,53.8,38.1,27.5,39.1,28.7,21.3,87,71,43,29.63,29.52,7,2,8,0.00
2013-3-6,41.0,38.4,36.1,36.3,33.3,29.8,91,82,76,29.59,29.53,14,6,14,0.00
2013-3-7,42.6,40.4,38.7,40.7,38.0,35.3,94,91,85,29.54,29.43,12,7,17,0.02
2013-3-8,39.7,38.5,37.2,36.0,34.8,33.1,89,86,83,29.60,29.44,18,10,20,0.00
2013-3-9,37.6,36.4,35.1,34.7,30.6,22.7,90,80,59,29.78,29.59,17,9,21,0.02
2013-3-10,38.7,32.6,25.3,31.8,23.7,19.0,84,70,49,29.98,29.77,21,8,23,0.04
2013-3-11,34.7,26.8,14.5,26.3,18.9,5.0,83,72,54,30.01,29.96,13,5,22,0.02
2013-3-12,46.2,30.7,11.1,29.1,19.4,3.5,78,63,48,30.00,29.78,8,2,10,0.20
2013-3-13,49.5,36.0,25.2,30.6,22.3,15.4,77,59,42,29.87,29.73,8,3,12,0.00
2013-3-14,41.9,36.8,25.3,35.3,30.4,16.2,86,78,68,29.86,29.47,14,6,16,0.00
2013-3-15,49.1,39.8,31.3,39.6,33.4,25.7,86,78,61,29.47,29.24,13,6,16,0.04
2013-3-16,35.8,32.5,28.2,31.4,28.5,22.9,87,85,80,29.27,29.07,7,1,9,0.15
2013-3-17,40.1,34.8,27.7,37.0,31.0,23.2,93,86,79,29.14,29.00,8,2,11,0.15
2013-3-18,38.1,35.1,30.9,35.5,31.4,27.8,90,86,81,29.40,29.14,12,6,17,0.04
2013-3-19,33.8,32.8,31.6,31.0,30.0,28.8,90,90,88,29.54,29.38,16,4,17,0.20
2013-3-20,39.4,34.2,28.0,32.4,28.2,20.5,90,79,64,29.92,29.54,8,4,14,0.35
2013-3-21,40.3,32.5,21.6,28.4,23.3,15.8,84,69,57,29.95,29.88,17,6,18,0.00
2013-3-22,34.9,33.6,31.8,27.6,25.4,23.1,81,72,65,29.89,29.80,22,12,27,0.00
2013-3-23,33.3,32.6,31.8,25.7,23.2,20.5,75,68,62,30.06,29.87,21,12,28,0.01
2013-3-24,35.4,32.9,31.3,23.1,21.4,19.4,67,62,53,30.15,30.03,21,10,24,0.00
2013-3-25,36.5,33.4,31.8,24.2,22.4,20.4,70,64,55,30.16,30.10,17,8,19,0.00
2013-3-26,32.2,31.2,30.9,24.2,23.3,21.4,74,72,64,30.12,30.08,8,5,10,0.00
2013-3-27,41.5,32.6,24.6,35.3,24.2,16.6,84,71,51,30.03,29.94,13,3,13,0.05
2013-3-28,40.6,34.2,28.4,30.3,23.9,19.1,84,67,50,29.97,29.92,12,4,12,0.01
2013-3-29,44.6,33.7,25.5,34.7,24.4,18.1,81,69,49,29.91,29.79,11,2,11,0.00
2013-3-30,46.4,34.1,24.8,32.5,23.5,17.1,83,66,39,29.89,29.82,7,2,8,0.00
2013-3-31,24.8,24.8,24.8,17.1,17.1,17.1,72,72,72,29.89,29.89,0,0,0,0.00
2013-4-1,42.1,26.1,24.8,38.2,18.3,17.1,86,72,63,29.99,29.89,8,0,8,2.85
2013-4-2,43.5,35.2,25.2,31.4,24.3,15.1,77,64,53,30.10,29.92,10,3,11,0.00
2013-4-3,50.7,36.3,20.7,36.8,24.0,14.9,83,62,36,30.14,30.10,9,3,11,0.00
2013-4-4,51.1,41.3,34.3,35.4,28.0,19.2,83,62,29,30.13,30.08,13,5,17,0.01
2013-4-5,49.8,38.5,28.4,33.8,26.6,20.2,85,63,43,30.12,30.05,13,4,13,0.00
2013-4-6,54.0,38.7,26.2,35.3,27.0,18.5,77,63,44,30.12,30.04,11,3,15,0.00
2013-4-7,48.4,38.7,32.2,35.9,30.1,24.5,81,71,53,30.05,29.84,8,3,12,0.00
2013-4-8,46.0,38.4,33.4,29.6,25.4,19.4,75,60,39,29.84,29.60,16,6,16,0.00
2013-4-9,46.2,38.3,30.7,31.6,25.2,20.8,76,60,42,29.60,29.51,16,6,18,0.00
2013-4-10,45.5,37.6,28.8,36.8,30.6,23.6,86,76,63,29.58,29.45,11,3,12,0.00
2013-4-11,47.1,40.7,34.5,35.4,31.7,27.8,85,71,56,29.45,29.28,11,4,13,0.00
2013-4-12,50.4,41.0,36.1,38.3,33.8,28.7,87,76,62,29.51,29.23,8,4,11,0.01
2013-4-13,55.9,46.5,37.9,45.2,36.8,32.2,89,71,42,29.60,29.30,17,4,17,0.00
2013-4-14,54.9,51.7,49.5,47.7,45.1,42.9,84,78,66,29.37,29.25,29,16,30,0.07
2013-4-15,55.6,50.4,46.4,47.5,43.2,40.6,84,77,63,29.61,29.36,23,11,23,0.01
2013-4-16,53.6,48.2,43.0,42.6,39.0,33.8,83,71,52,29.70,29.22,28,15,33,0.02
2013-4-17,53.1,46.6,39.0,46.8,40.7,33.1,86,80,72,29.69,28.99,28,10,29,0.09
2013-4-18,51.6,46.9,42.3,42.9,40.0,36.2,87,77,65,29.77,28.96,30,12,30,0.04
2013-4-19,57.9,47.5,36.1,40.3,34.8,30.9,86,63,40,30.28,29.77,12,4,14,0.00
2013-4-20,55.2,47.5,39.6,40.2,36.3,32.3,81,66,51,30.27,29.99,20,11,23,0.00
2013-4-21,53.6,46.2,41.2,41.9,38.2,34.9,84,74,52,29.99,29.69,16,8,21,0.02
2013-4-22,56.8,46.4,39.9,46.3,39.0,35.0,83,76,53,29.71,29.44,27,12,27,0.00
2013-4-23,55.6,48.3,44.2,42.9,38.9,35.7,84,70,52,29.91,29.58,21,11,24,0.00
2013-4-24,58.3,49.5,42.4,49.0,39.1,31.5,89,69,43,30.08,29.73,15,5,17,0.07
2013-4-25,53.4,43.9,38.8,41.2,35.7,31.1,84,73,57,30.07,29.88,14,5,15,0.00
2013-4-26,54.7,42.4,36.0,39.7,33.1,28.7,85,70,42,29.89,29.69,14,6,24,0.05
2013-4-27,58.3,45.5,37.8,34.4,30.3,24.7,81,57,31,29.98,29.82,9,4,17,0.00
2013-4-28,52.7,43.9,36.7,42.4,36.8,30.7,86,76,63,29.82,29.47,18,11,54,0.01
2013-4-29,54.0,45.5,38.1,37.3,35.2,32.8,85,68,47,29.95,29.46,24,10,24,0.00
2013-4-30,59.7,46.7,32.2,40.5,30.8,23.9,86,57,28,30.15,29.95,11,4,16,0.00
2013-5-1,56.5,45.2,36.0,42.9,35.2,26.3,81,68,44,30.12,29.95,15,8,20,0.00
2013-5-2,56.5,45.6,31.1,42.1,34.2,25.7,84,65,38,30.12,29.86,17,6,21,0.00
2013-5-3,52.5,48.7,41.0,47.2,43.4,36.2,88,82,76,29.86,29.53,21,11,24,0.13
2013-5-4,50.4,45.1,36.1,40.5,36.5,30.9,85,72,52,29.74,29.58,21,9,23,0.00
2013-5-5,60.8,53.9,47.8,50.7,45.9,39.8,82,75,67,29.90,29.74,17,9,18,0.00
2013-5-6,59.4,52.1,45.3,48.6,45.0,39.8,84,77,65,29.93,29.84,17,8,20,0.00
2013-5-7,71.4,56.3,37.0,48.1,42.3,32.1,86,62,40,29.93,29.73,12,3,15,0.00
2013-5-8,61.3,52.9,46.6,50.7,43.9,36.8,87,72,53,29.73,29.36,21,7,21,0.00
2013-5-9,55.8,48.4,43.9,41.8,39.0,34.7,87,71,48,29.40,29.20,14,6,17,0.00
2013-5-10,57.6,48.1,41.7,45.5,41.5,37.7,89,79,59,29.48,29.23,14,6,16,0.02
2013-5-11,50.5,45.4,40.5,45.1,40.1,35.5,88,82,73,29.58,29.33,17,8,23,0.01
2013-5-12,52.3,46.8,40.5,46.5,41.2,34.5,87,81,67,29.63,29.42,18,7,21,0.00
2013-5-13,49.5,42.0,36.0,41.9,36.4,31.3,88,81,70,29.47,29.30,23,10,24,0.06
2013-5-14,53.8,45.0,38.8,42.2,37.7,33.5,88,76,56,29.30,29.21,20,9,23,0.01
2013-5-15,57.7,42.8,30.7,45.0,35.0,26.5,89,75,50,29.28,29.15,14,3,14,0.04
2013-5-16,59.5,47.9,36.7,40.7,35.7,30.8,86,64,44,29.56,29.26,9,4,11,0.00
2013-5-17,66.7,52.6,42.6,44.8,38.0,32.3,87,61,33,29.73,29.56,7,3,10,0.00
2013-5-18,52.7,49.4,46.8,49.9,45.9,39.7,94,88,69,29.72,29.58,17,5,20,0.17
2013-5-19,62.1,52.1,47.1,57.5,49.4,45.8,96,91,74,29.85,29.67,10,2,17,0.01
2013-5-20,73.4,60.5,53.1,61.0,54.5,49.7,92,81,60,29.91,29.79,7,2,11,0.02
2013-5-21,68.9,56.1,42.8,52.8,45.9,40.8,93,71,44,29.96,29.89,8,2,8,0.00
2013-5-22,60.6,51.3,39.2,43.9,37.0,30.4,85,61,33,29.96,29.88,13,5,17,0.00
2013-5-23,53.6,44.3,35.1,34.9,31.3,28.0,81,61,41,29.88,29.77,14,6,21,0.00
2013-5-24,58.6,48.7,37.6,38.9,34.5,30.5,81,59,44,30.08,29.77,17,6,21,0.00
2013-5-25,68.0,52.9,32.9,43.7,37.5,28.0,87,59,33,30.08,29.99,10,3,12,0.00
2013-5-26,63.5,52.5,39.9,49.8,42.4,33.7,83,69,57,30.00,29.62,11,4,13,0.00
2013-5-27,54.9,49.8,45.9,45.2,42.8,39.4,83,77,67,29.62,29.30,21,8,21,0.00
2013-5-28,59.0,50.7,44.8,45.4,42.5,40.6,85,74,58,29.66,29.40,8,4,11,0.00
2013-5-29,64.8,55.1,44.6,52.2,46.0,40.6,87,73,52,29.79,29.66,11,3,12,0.02
2013-5-30,72.7,59.8,48.9,50.1,46.7,42.9,81,63,43,29.95,29.77,10,2,11,0.00
2013-5-31,68.4,56.2,46.0,53.5,45.7,38.4,86,69,48,30.05,29.94,13,4,13,0.00
2013-6-1,61.7,52.0,40.8,48.3,40.6,36.0,86,66,43,30.17,30.04,9,4,11,0.00
2013-6-2,70.9,54.8,40.8,46.7,41.0,36.0,86,62,35,30.31,30.17,9,4,10,0.00
2013-6-3,74.1,58.9,43.2,55.7,49.2,38.4,85,71,48,30.37,30.31,5,2,7,0.00
2013-6-4,73.6,61.9,49.8,50.9,47.6,44.4,86,62,40,30.37,30.20,10,4,13,0.00
2013-6-5,73.0,57.4,50.0,56.2,48.4,44.3,89,73,44,30.20,30.04,10,3,11,0.00
2013-6-6,79.9,60.1,47.7,52.2,47.6,43.7,89,68,32,30.15,30.06,7,2,7,0.00
2013-6-7,62.2,49.2,41.2,55.8,45.3,40.0,97,87,66,30.20,30.15,7,1,7,0.00
2013-6-8,84.0,59.5,41.2,57.0,47.6,39.6,98,71,26,30.19,30.00,6,2,6,0.00
2013-6-9,68.9,56.7,48.6,54.1,50.2,45.8,97,80,55,30.01,29.88,10,4,10,0.00
2013-6-10,68.7,55.7,47.8,53.7,49.4,45.4,95,81,56,29.89,29.78,8,4,8,0.00
2013-6-11,61.9,54.3,43.0,54.7,50.1,41.4,98,86,64,29.79,29.58,8,2,8,0.07
2013-6-12,67.5,57.3,50.7,56.2,51.7,47.6,94,82,61,29.57,29.46,10,4,10,0.02
2013-6-13,63.3,54.7,45.7,50.7,45.9,42.6,97,74,52,29.65,29.43,16,5,16,0.00
2013-6-14,65.5,55.2,46.0,52.5,47.2,44.4,95,75,55,29.67,29.46,12,6,13,0.07
2013-6-15,55.9,51.2,47.3,49.6,47.3,43.3,97,87,71,29.46,29.30,15,7,18,0.04
2013-6-16,49.5,48.7,48.0,48.5,47.9,47.5,98,97,97,29.51,29.45,8,5,10,0.00
2013-6-17,72.3,61.6,52.0,56.7,53.8,50.9,96,77,55,29.93,29.91,7,3,7,0.00
2013-6-18,75.0,62.9,53.6,58.9,53.8,49.8,95,74,51,29.92,29.80,7,2,8,0.00
2013-6-19,71.2,60.4,49.5,51.9,48.2,43.9,96,67,39,29.92,29.84,11,4,12,0.00
2013-6-20,81.7,65.5,48.0,56.4,52.3,45.5,93,65,32,29.91,29.68,10,3,11,0.00
2013-6-21,73.0,62.9,55.6,57.4,53.5,45.4,89,72,46,29.68,29.51,8,3,8,0.00
2013-6-22,61.7,54.4,50.4,56.1,51.1,48.4,99,89,66,29.49,29.19,16,5,16,0.28
2013-6-23,57.2,55.0,48.9,55.1,52.9,48.7,99,93,89,29.42,29.26,7,5,10,0.01
2013-6-24,57.2,57.2,57.2,54.0,54.0,54.0,89,89,89,29.42,29.42,5,5,8,0.01
2013-6-25,57.2,57.2,57.2,54.0,54.0,54.0,89,89,89,29.42,29.42,5,5,8,0.01
2013-6-26,57.2,57.2,57.2,54.0,54.0,54.0,89,89,89,29.42,29.42,5,5,8,0.01
2013-6-27,57.2,57.2,57.2,54.0,54.0,54.0,89,89,89,29.42,29.42,5,5,8,0.01
2013-6-28,57.2,57.2,57.2,54.0,54.0,54.0,89,89,89,29.42,29.42,5,5,8,0.01
2013-6-29,57.2,57.2,57.2,54.0,54.0,54.0,89,89,89,29.42,29.42,5,5,8,0.01
2013-6-30,57.2,57.2,57.2,54.0,54.0,54.0,89,89,89,29.42,29.42,5,5,8,0.01
2013-7-1,57.2,57.2,57.2,54.0,54.0,54.0,89,89,89,29.42,29.42,5,5,8,0.01
2013-7-2,57.2,57.2,57.2,54.0,54.0,54.0,89,89,89,29.42,29.42,5,5,8,0.01
2013-7-3,57.2,57.2,57.2,54.0,54.0,54.0,89,89,89,29.42,29.42,5,5,8,0.01
2013-7-4,57.2,57.2,57.2,54.0,54.0,54.0,89,89,89,29.42,29.42,5,5,8,0.01
2013-7-5,57.2,57.2,57.2,54.0,54.0,54.0,89,89,89,29.42,29.42,5,5,8,0.01
2013-7-6,57.2,57.2,57.2,54.0,54.0,54.0,89,89,89,29.42,29.42,5,5,8,0.01
2013-7-7,64.6,57.2,41.7,55.4,53.7,37.5,91,88,72,29.96,29.42,5,5,8,0.01
2013-7-8,85.8,59.8,41.7,63.4,55.8,37.5,99,88,47,29.96,29.45,8,2,8,4.68
2013-7-9,88.3,68.7,59.2,63.1,60.5,55.8,89,76,43,29.91,29.75,7,1,11,0.00
2013-7-10,77.0,64.1,54.0,59.3,56.1,51.0,91,77,53,29.82,29.75,8,4,10,0.00
2013-7-11,89.2,67.2,54.0,65.3,58.9,51.4,93,77,43,29.77,29.67,4,1,6,0.00
2013-7-12,88.7,74.5,57.4,65.9,60.8,56.0,97,66,37,29.68,29.63,8,3,11,0.00
2013-7-13,82.2,68.0,56.8,62.6,58.6,54.2,96,74,45,29.73,29.66,6,3,10,0.00
2013-7-14,76.6,63.6,52.9,56.6,52.8,47.8,97,71,45,29.71,29.59,10,4,12,0.00
2013-7-15,71.1,60.2,51.4,58.7,53.5,48.3,95,79,64,29.62,29.58,11,5,11,0.00
2013-7-16,78.8,66.8,59.9,62.2,57.8,54.6,94,74,50,29.66,29.59,9,4,11,0.00
2013-7-17,76.8,67.3,53.6,58.6,55.8,51.0,96,69,48,29.75,29.63,12,4,14,0.00
2013-7-18,88.5,72.0,55.9,66.1,60.4,53.7,95,70,43,29.80,29.74,9,3,10,0.00
2013-7-19,82.8,68.4,50.7,65.2,56.9,49.6,97,70,45,29.80,29.76,10,3,10,0.00
2013-7-20,79.3,66.5,57.2,61.3,58.3,55.4,97,77,53,29.78,29.70,10,4,11,0.00
2013-7-21,72.7,63.0,55.9,58.1,55.7,52.4,94,78,58,29.70,29.54,11,5,14,0.00
2013-7-22,72.1,62.1,57.0,61.8,58.3,55.2,95,88,69,29.54,29.40,9,4,12,0.00
2013-7-23,78.3,63.3,58.6,73.6,61.3,57.9,99,94,72,29.40,29.26,7,2,9,1.18
2013-7-24,81.1,68.0,57.0,67.9,60.1,55.0,99,78,53,29.31,29.27,7,2,7,0.05
2013-7-25,72.1,62.4,56.5,67.1,60.0,55.3,98,92,80,29.31,29.21,7,2,7,0.12
2013-7-26,75.9,63.4,54.5,64.8,58.7,53.7,99,85,56,29.26,29.21,9,3,10,0.02
2013-7-27,79.9,63.8,50.2,61.9,57.1,49.4,98,81,47,29.26,29.07,7,2,12,0.01
2013-7-28,71.6,60.2,54.1,62.9,58.1,53.3,99,93,69,29.07,28.94,7,1,9,0.56
2013-7-29,73.9,59.9,53.6,67.4,58.0,52.8,99,94,71,29.15,29.02,7,2,8,0.18
2013-7-30,72.7,59.7,50.5,63.9,54.3,50.3,99,84,51,29.20,29.14,11,4,14,0.02
2013-7-31,71.6,60.5,51.1,57.7,53.9,50.8,99,81,54,29.27,29.16,6,2,8,0.02
2013-8-1,77.0,63.8,57.0,67.3,60.7,55.8,99,90,67,29.16,29.03,12,2,15,0.11
2013-8-2,73.4,65.7,58.8,62.1,57.6,53.6,96,77,53,29.04,28.95,16,7,20,0.00
2013-8-3,70.0,60.2,55.4,55.1,52.9,49.8,92,78,53,29.26,28.98,19,8,25,0.00
2013-8-4,72.5,60.8,52.0,58.7,53.3,48.7,97,77,54,29.29,29.24,14,5,15,0.02
2013-8-5,71.8,57.3,49.3,61.7,53.1,47.9,98,87,61,29.29,29.15,6,1,8,0.00
2013-8-6,69.6,57.1,46.9,54.6,50.2,45.9,98,79,55,29.38,29.26,7,3,10,0.00
2013-8-7,75.0,58.8,46.9,58.3,52.8,46.1,98,82,53,29.46,29.35,4,1,5,0.01
2013-8-8,72.3,59.0,47.8,62.3,53.8,47.6,99,84,58,29.46,29.32,7,2,11,0.04
2013-8-9,70.5,59.9,50.9,60.1,53.8,47.1,97,81,57,29.52,29.27,11,4,14,0.02
2013-8-10,64.4,57.0,50.2,54.4,50.9,46.9,94,81,63,29.52,29.38,8,3,10,0.00
2013-8-11,65.1,55.2,51.3,57.6,51.2,49.1,97,87,60,29.38,29.26,13,6,15,0.07
2013-8-12,70.9,57.7,48.7,55.0,50.8,48.2,99,80,54,29.42,29.24,10,5,14,0.00
2013-8-13,65.7,57.4,45.0,52.7,48.9,44.2,98,74,61,29.50,29.42,8,5,9,0.00
2013-8-14,70.5,61.9,41.7,58.5,53.8,37.5,96,75,61,29.95,29.49,9,6,14,0.02
2013-8-15,68.2,62.5,58.8,64.5,60.3,58.2,99,93,83,29.78,29.58,12,6,13,0.22
2013-8-16,70.3,60.0,50.4,59.7,54.7,49.4,99,84,62,29.71,29.58,11,5,14,0.00
2013-8-17,70.5,59.4,52.2,62.2,55.1,48.4,94,86,66,29.69,29.24,17,7,20,0.09
2013-8-18,63.0,55.2,50.9,54.6,49.9,47.5,94,83,62,29.64,29.30,15,7,17,0.01
2013-8-19,65.1,57.1,50.9,56.0,50.4,47.2,89,79,60,30.00,29.64,13,6,16,0.00
2013-8-20,68.2,58.2,52.7,57.1,53.4,48.9,94,84,64,30.06,29.96,11,4,11,0.04
2013-8-21,75.6,62.3,57.0,63.2,57.7,53.4,96,85,59,29.96,29.86,10,4,12,0.09
2013-8-22,69.6,59.6,55.4,62.7,56.8,54.1,97,91,73,29.96,29.85,7,3,10,0.00
2013-8-23,70.0,60.4,50.0,66.5,57.0,49.5,99,89,75,29.85,29.71,7,1,8,0.00
2013-8-24,73.8,59.4,55.2,59.0,54.1,50.2,97,83,53,29.81,29.73,6,2,6,0.00
2013-8-25,77.0,61.0,46.2,61.5,53.6,44.0,94,78,55,30.01,29.81,4,1,6,0.00
2013-8-26,79.5,62.5,49.1,63.3,55.9,48.3,97,81,55,30.01,29.93,5,2,6,0.00
2013-8-27,71.1,58.8,50.0,60.3,54.4,48.1,95,86,68,30.05,29.91,5,2,9,0.00
2013-8-28,69.8,58.1,50.0,57.3,52.1,44.4,93,81,62,30.05,29.93,6,3,9,0.00
2013-8-29,65.5,58.4,50.4,58.0,54.6,45.4,97,87,75,29.91,29.84,10,5,11,0.01
2013-8-30,65.7,57.4,47.3,60.1,53.4,41.8,96,87,76,29.91,29.67,14,6,17,0.00
2013-8-31,65.8,54.0,46.6,50.1,44.4,39.2,89,72,42,30.11,29.91,11,6,18,0.00
2013-9-1,58.3,54.9,51.8,55.3,49.6,46.5,95,82,72,30.11,29.96,17,9,21,0.00
2013-9-2,66.2,61.1,56.7,59.3,57.0,55.3,95,87,77,30.09,29.91,17,8,21,0.00
2013-9-3,75.7,62.9,54.1,60.0,56.6,50.7,97,81,49,30.09,30.02,9,5,14,0.00
2013-9-4,72.7,59.8,50.5,54.2,50.6,43.8,92,73,48,30.02,29.75,14,5,14,0.00
2013-9-5,72.5,56.4,42.3,51.9,45.7,36.8,91,70,38,29.75,29.71,8,3,9,0.00
2013-9-6,57.7,49.1,43.5,48.7,44.4,38.4,93,84,66,29.75,29.71,8,2,14,0.39
2013-9-7,64.4,52.3,45.3,56.3,46.8,43.0,98,83,57,29.75,29.56,12,3,13,0.15
2013-9-8,63.7,51.1,38.5,50.7,43.5,36.8,95,77,52,29.79,29.74,8,2,9,0.00
2013-9-9,69.8,52.7,44.2,53.2,46.7,41.3,95,82,51,29.99,29.77,5,1,6,0.00
2013-9-10,70.0,54.5,44.1,51.5,46.3,42.4,94,76,48,30.07,29.98,10,2,10,0.00
2013-9-11,61.7,54.9,46.2,57.8,52.5,44.3,96,92,85,30.06,29.90,5,2,7,0.25
2013-9-12,67.8,58.5,51.6,59.2,54.8,50.4,97,88,58,29.91,29.70,11,4,14,0.00
2013-9-13,52.9,49.9,45.1,50.8,47.6,43.5,96,92,81,29.91,29.81,6,2,7,0.05
2013-9-14,68.7,50.7,39.7,52.7,44.1,39.1,99,80,48,29.89,29.75,7,2,8,0.00
2013-9-15,57.7,49.8,41.7,56.3,45.9,38.4,96,87,63,29.75,29.03,20,10,23,0.17
2013-9-16,57.6,46.6,39.9,47.0,41.7,38.0,95,84,65,29.17,29.09,12,7,17,0.01
2013-9-17,46.9,45.4,45.1,43.0,40.8,40.6,86,84,83,29.16,29.11,14,9,22,0.00
2013-9-18,57.2,49.4,37.2,54.3,45.7,33.4,99,87,80,30.29,29.39,17,7,17,0.02
2013-9-19,50.0,48.5,46.9,46.7,45.1,43.3,89,88,87,30.06,29.93,11,6,11,0.09
2013-9-20,60.4,50.7,41.7,47.9,45.0,37.5,88,81,61,30.07,29.89,19,7,19,0.02
2013-9-21,64.8,57.1,49.1,57.8,52.5,46.2,92,85,76,30.05,29.97,12,7,14,0.00
2013-9-22,70.9,61.9,55.9,59.2,55.5,53.3,91,80,58,30.25,30.05,12,6,16,0.00
2013-9-23,69.8,58.6,49.1,61.0,54.8,47.7,97,88,73,30.24,30.08,4,1,7,0.00
2013-9-24,59.0,56.7,54.7,57.0,55.2,53.6,97,95,92,30.08,29.91,8,2,9,0.00
2013-9-25,54.9,51.3,44.4,53.9,50.6,43.9,99,97,95,30.00,29.85,12,4,12,0.04
2013-9-26,60.4,48.9,35.2,53.9,44.1,34.2,99,85,60,30.05,29.99,8,1,9,0.01
2013-9-27,61.0,54.7,50.5,57.0,52.5,48.5,97,92,83,30.01,29.89,4,0,4,0.01
2013-9-28,69.4,55.8,45.0,60.3,50.7,44.2,99,85,59,29.89,29.81,8,1,9,0.00
2013-9-29,67.5,54.0,44.1,52.6,46.5,41.7,95,78,51,29.88,29.84,9,3,14,0.00
2013-9-30,61.2,52.1,42.4,50.2,46.3,40.6,96,81,62,29.86,29.77,13,4,17,0.00
2013-10-1,60.8,53.0,46.0,48.3,46.0,42.7,90,78,58,29.84,29.78,10,4,14,0.00
2013-10-2,62.6,56.1,53.2,55.4,51.0,46.9,95,83,70,29.80,29.71,14,4,14,0.09
2013-10-3,70.5,60.4,55.6,64.1,57.7,54.8,97,91,72,29.72,29.50,6,2,10,0.27
2013-10-4,62.4,57.9,52.3,61.0,56.2,51.2,99,94,84,29.77,29.49,8,3,11,0.04
2013-10-5,63.1,55.1,50.7,54.0,51.2,49.0,97,87,65,30.04,29.77,11,5,13,0.00
2013-10-6,61.9,58.3,54.1,58.3,55.4,51.6,95,90,80,30.04,29.99,14,6,17,0.00
2013-10-7,64.8,60.5,57.2,58.7,56.9,55.4,98,88,77,30.03,29.94,13,7,17,0.05
2013-10-8,58.6,54.7,49.3,58.1,52.3,46.4,98,92,83,30.10,29.93,14,7,15,0.07
2013-10-9,54.7,47.9,39.2,47.9,41.3,32.3,97,79,54,30.11,29.88,12,5,15,0.01
2013-10-10,56.1,43.4,34.0,39.7,34.9,29.4,91,72,51,30.37,30.10,11,3,17,0.00
2013-10-11,43.7,42.5,38.7,38.3,37.1,35.9,91,81,77,30.37,30.35,5,2,8,0.00
2013-10-13,54.3,49.1,45.3,50.2,46.8,44.0,99,92,80,30.20,29.97,11,5,11,0.05
2013-10-14,54.5,50.6,46.2,51.0,47.9,45.4,99,91,75,29.97,29.87,8,4,8,0.05
2013-10-15,51.6,47.2,37.2,49.9,46.3,35.9,99,97,90,29.93,29.83,7,2,7,0.02
2013-10-16,53.4,44.5,35.1,48.8,43.1,34.2,99,95,81,29.92,29.52,7,2,7,0.31
2013-10-17,53.6,48.1,43.7,52.8,47.5,43.2,99,98,96,29.91,29.58,4,1,4,0.20
2013-10-18,53.6,49.2,43.0,52.1,47.8,42.5,99,95,87,29.93,29.63,8,2,8,0.05
2013-10-19,60.3,53.2,49.6,58.5,52.1,49.4,99,96,86,29.61,29.40,4,1,4,0.35
2013-10-20,61.5,51.5,45.3,57.6,50.2,44.5,99,95,77,29.43,29.36,5,1,7,0.12
2013-10-21,57.9,53.2,50.0,57.7,51.4,48.9,99,94,84,29.48,29.22,10,3,11,0.12
2013-10-22,60.4,56.5,53.1,57.7,54.9,52.0,99,94,79,29.23,29.06,13,4,13,0.28
2013-10-23,55.0,51.4,43.9,53.9,50.0,40.0,98,95,85,29.52,28.95,17,4,17,0.27
2013-10-24,63.9,46.6,42.1,49.7,43.7,38.9,96,90,60,29.84,29.52,15,5,17,0.00
2013-10-25,61.3,51.6,42.1,55.4,49.5,41.2,99,93,75,29.79,29.27,13,5,17,0.07
2013-10-26,54.1,50.7,44.2,53.0,48.3,42.9,98,92,78,29.38,29.08,18,7,18,0.05
2013-10-27,52.0,48.3,44.6,48.4,46.2,43.2,99,93,80,29.12,28.79,30,10,30,0.18
2013-10-28,53.1,47.0,42.4,48.0,45.1,42.2,99,93,78,29.28,28.83,21,7,21,0.04
2013-10-29,52.3,44.9,40.5,44.5,41.7,39.1,99,89,70,29.68,29.28,11,6,17,0.01
2013-10-30,52.9,46.0,39.9,51.7,44.0,39.1,99,93,76,29.83,29.54,19,7,19,0.09
2013-10-31,52.7,46.2,42.4,45.7,42.8,40.6,99,88,74,29.75,29.53,21,11,21,0.07
2013-11-1,50.5,44.6,40.3,43.8,40.9,39.4,97,87,74,29.54,29.49,18,10,18,0.00
2013-11-2,45.1,40.4,34.0,44.3,39.5,32.7,99,97,88,29.48,28.77,9,4,9,0.25
2013-11-3,49.8,41.7,35.2,41.2,37.9,33.2,99,87,67,29.22,28.89,17,6,17,0.02
2013-11-4,52.0,37.8,31.5,43.2,34.9,30.4,99,90,64,29.31,29.13,5,1,5,0.00
2013-11-5,61.7,52.0,38.5,58.0,49.5,36.9,99,91,80,30.25,29.15,14,6,15,0.04
2013-11-6,45.3,41.2,37.2,43.1,39.9,35.7,99,95,88,29.32,29.19,11,6,14,0.08
2013-11-7,48.2,42.7,37.4,43.2,39.2,35.9,98,88,73,29.43,29.31,26,11,26,0.06
2013-11-8,49.6,41.8,36.0,44.6,39.9,34.3,98,93,79,29.50,29.40,16,7,18,0.02
2013-11-9,43.0,37.4,34.5,41.6,36.2,32.9,99,96,89,29.50,29.43,10,4,11,0.06
2013-11-10,54.5,36.4,29.5,43.4,33.8,28.9,99,91,61,30.01,29.58,11,1,11,0.01
2013-11-11,55.2,47.9,41.9,53.5,45.1,37.6,98,90,76,29.97,29.70,16,9,16,0.01
2013-11-12,50.2,44.1,41.0,46.3,41.0,38.2,98,89,72,30.30,29.97,20,8,26,0.02
2013-11-13,48.0,45.1,41.5,45.5,41.8,39.4,97,89,75,30.31,29.76,24,12,24,0.02
2013-11-14,51.3,41.8,35.1,44.3,36.3,30.9,97,81,54,30.39,29.75,17,6,20,2.80
2013-11-15,36.5,36.5,36.5,33.3,33.3,33.3,88,88,88,30.39,30.39,4,4,4,0.00
2013-11-16,36.5,36.5,36.5,33.3,33.3,33.3,88,88,88,30.39,30.39,4,4,4,0.00
2013-11-17,36.5,36.5,36.5,33.3,33.3,33.3,88,88,88,30.39,30.39,4,4,4,0.00
2013-11-18,41.7,36.6,36.5,37.5,33.3,33.3,88,88,85,30.39,30.29,4,4,4,1.95
2013-11-19,41.7,32.4,27.5,41.5,29.6,26.0,99,90,70,30.15,29.76,19,5,26,0.01
2013-11-20,43.9,39.6,34.5,42.4,35.2,30.6,99,85,70,29.94,29.54,18,8,24,0.07
2013-11-21,37.9,37.0,36.5,30.7,29.3,28.3,76,73,72,30.03,29.95,12,6,16,0.00
2013-11-22,43.7,30.8,28.4,32.5,26.1,24.4,87,83,63,30.42,30.30,4,0,5,0.00
2013-11-23,48.6,34.3,28.4,41.7,31.4,25.0,98,89,75,30.58,30.40,3,1,5,0.00
2013-11-24,42.8,35.3,29.1,42.4,34.7,28.9,99,98,94,30.83,30.58,2,0,4,0.00
2013-11-25,41.4,34.4,28.9,41.1,33.9,28.7,99,98,92,30.86,30.81,6,1,7,0.00
2013-11-26,50.4,45.3,32.0,49.7,45.1,39.7,99,97,97,30.84,30.67,15,7,16,0.01
2013-11-27,52.5,49.4,46.6,49.8,48.4,46.3,99,96,87,30.69,30.62,13,6,16,0.00
2013-11-28,46.6,40.4,34.3,46.3,39.8,33.8,99,97,93,30.75,30.61,8,2,11,0.01
2013-11-29,46.6,41.2,36.9,46.3,37.8,31.6,99,88,76,30.48,30.24,18,6,18,0.05
2013-11-30,46.6,40.0,32.4,45.2,37.9,29.6,98,92,81,30.54,30.44,14,5,16,0.00
2013-12-1,53.2,42.8,34.3,47.2,41.6,33.8,99,96,77,30.74,30.53,12,3,12,0.00
2013-12-2,46.4,43.6,34.2,45.4,41.5,33.7,99,92,85,30.73,30.48,14,7,19,0.00
2013-12-3,48.6,46.0,36.3,47.0,44.8,35.6,99,96,91,30.48,30.27,14,8,18,0.02
2013-12-4,43.2,38.8,33.8,41.6,36.6,33.3,99,92,80,30.43,30.21,18,7,25,0.00
2013-12-5,45.9,38.3,31.1,45.1,35.0,24.0,99,88,63,30.27,29.59,40,12,40,0.09
2013-12-6,35.8,33.2,32.0,31.7,27.6,23.5,96,80,67,30.46,30.27,9,3,11,0.00
2013-12-7,46.6,41.2,32.4,46.3,40.7,31.5,99,98,97,30.35,30.10,16,7,21,0.02
2013-12-8,52.3,49.7,46.4,51.6,49.2,45.8,99,98,94,30.12,30.01,24,13,25,0.02
2013-12-9,52.0,50.2,48.0,51.3,48.2,43.6,99,93,84,30.35,30.12,19,10,26,0.01
2013-12-10,51.4,49.1,46.8,49.1,46.8,43.7,98,92,81,30.36,30.28,20,12,22,0.00
2013-12-11,50.9,47.7,41.2,49.9,44.2,36.5,97,88,72,30.39,30.16,18,8,21,0.00
2013-12-12,54.0,51.0,45.9,52.6,49.1,37.7,99,93,65,30.16,30.05,19,11,26,0.14
2013-12-13,54.0,50.1,41.7,52.2,47.6,37.6,97,91,82,30.08,29.86,26,11,26,0.00
2013-12-14,50.9,45.5,38.3,50.2,43.0,35.6,99,91,81,30.06,29.59,31,13,37,0.07
2013-12-15,48.2,44.1,39.4,47.4,41.7,35.1,99,92,77,29.99,29.68,24,11,27,0.12
2013-12-16,47.8,41.8,38.3,44.4,38.5,36.0,98,88,79,30.11,29.67,23,11,24,0.02
2013-12-17,45.1,40.0,35.1,39.5,36.2,31.8,95,86,76,30.22,29.89,17,9,21,0.00
2013-12-18,51.8,46.5,41.5,48.8,43.4,35.3,96,89,74,29.88,28.92,27,13,30,0.12
2013-12-19,42.6,37.6,34.2,37.4,33.4,30.7,96,85,77,29.64,28.99,28,15,32,0.02
2013-12-20,50.9,43.4,36.1,49.2,41.6,34.3,99,93,85,29.88,29.52,32,15,32,0.14
2013-12-21,47.1,43.4,38.8,45.7,40.1,36.8,99,88,78,29.64,29.42,30,13,30,0.12
2013-12-22,40.3,37.5,34.0,37.4,35.0,31.7,98,90,83,29.67,29.43,21,13,24,0.02
2013-12-23,48.4,41.0,34.9,47.8,38.2,31.3,99,90,82,29.66,28.49,17,9,23,0.24
2013-12-24,47.8,39.7,36.9,46.5,34.4,29.5,97,81,65,28.64,28.42,34,19,36,0.05
2013-12-25,44.1,40.5,37.8,38.9,35.8,33.4,96,83,73,29.23,28.64,30,15,30,0.00
2013-12-26,43.7,36.9,34.3,39.2,33.8,31.1,94,88,81,30.85,29.24,16,5,21,0.00
2013-12-27,45.5,42.2,32.7,43.1,40.6,31.5,99,94,84,29.48,27.31,28,18,118,0.11
2013-12-28,41.2,39.8,37.6,39.9,38.4,36.7,99,95,87,30.20,29.50,25,11,27,0.01
2013-12-29,45.3,40.9,38.3,43.4,39.1,35.4,99,93,83,30.50,30.20,17,7,21,0.02
2013-12-30,48.4,42.0,36.7,47.0,41.4,35.1,99,98,94,30.33,30.01,20,6,24,0.25
2013-12-31,45.9,41.2,35.4,42.2,38.9,33.0,99,91,83,30.31,29.95,13,7,23,0.02
2014-1-1,47.8,40.8,35.2,47.6,39.6,33.2,99,95,90,30.01,29.41,14,5,24,0.09
2014-1-2,44.2,41.9,39.2,42.0,40.3,37.4,99,94,85,29.85,29.43,17,8,24,0.01